Time,TemperatureF,DewpointF,PressureIn,WindDirection,WindDirectionDegrees,WindSpeedMPH,WindSpeedGustMPH,Humidity,HourlyPrecipIn,Conditions,Clouds,dailyrainin,SolarRadiationWatts/m^2,SoftwareType,DateUTC
2013-01-19 00:02:00,40.0,23.0,-100.00,South,169,7.0,12.0,51,0.00,,,0.00,0.000000,,2013-01-19 06:02:00,
2013-01-19 00:33:00,40.0,24.0,-100.00,South,172,7.0,12.0,53,0.00,,,0.00,0.000000,,2013-01-19 06:33:00,
2013-01-19 00:43:00,40.0,24.0,-100.00,South,172,7.0,12.0,53,0.00,,,0.00,0.000000,,2013-01-19 06:43:00,
2013-01-19 00:53:00,40.0,24.0,-100.00,South,172,7.0,12.0,53,0.00,,,0.00,0.000000,,2013-01-19 06:53:00,
2013-01-19 01:02:00,40.0,24.0,-100.00,South,172,7.0,12.0,53,0.00,,,0.00,0.000000,,2013-01-19 07:02:00,
2013-01-19 01:33:00,40.0,26.0,-100.00,South,178,7.0,16.0,56,0.00,,,0.00,0.000000,,2013-01-19 07:33:00,
2013-01-19 01:43:00,40.0,26.0,-100.00,South,178,7.0,16.0,56,0.00,,,0.00,0.000000,,2013-01-19 07:43:00,
2013-01-19 01:53:00,40.0,26.0,-100.00,South,178,7.0,16.0,56,0.00,,,0.00,0.000000,,2013-01-19 07:53:00,
2013-01-19 02:02:00,40.0,26.0,-100.00,South,178,7.0,16.0,56,0.00,,,0.00,0.000000,,2013-01-19 08:02:00,
2013-01-19 02:33:00,39.0,25.0,-100.00,South,173,7.0,15.0,58,0.00,,,0.00,0.000000,,2013-01-19 08:33:00,
2013-01-19 02:43:00,39.0,25.0,-100.00,South,173,7.0,15.0,58,0.00,,,0.00,0.000000,,2013-01-19 08:43:00,
2013-01-19 02:53:00,39.0,25.0,-100.00,South,173,7.0,15.0,58,0.00,,,0.00,0.000000,,2013-01-19 08:53:00,
2013-01-19 03:02:00,39.0,25.0,-100.00,South,173,7.0,15.0,58,0.00,,,0.00,0.000000,,2013-01-19 09:02:00,
2013-01-19 03:33:00,39.0,27.0,-100.00,South,170,7.0,15.0,62,0.00,,,0.00,0.000000,,2013-01-19 09:33:00,
2013-01-19 03:43:00,39.0,27.0,-100.00,South,170,7.0,15.0,62,0.00,,,0.00,0.000000,,2013-01-19 09:43:00,
2013-01-19 03:53:00,39.0,27.0,-100.00,South,170,7.0,15.0,62,0.00,,,0.00,0.000000,,2013-01-19 09:53:00,
2013-01-19 04:02:00,39.0,27.0,-100.00,South,170,7.0,15.0,62,0.00,,,0.00,0.000000,,2013-01-19 10:02:00,
2013-01-19 04:33:00,38.0,27.0,-100.00,SSE,168,7.0,15.0,63,0.00,,,0.00,0.000000,,2013-01-19 10:33:00,
2013-01-19 04:43:00,38.0,27.0,-100.00,SSE,168,7.0,15.0,63,0.00,,,0.00,0.000000,,2013-01-19 10:43:00,
2013-01-19 04:53:00,38.0,27.0,-100.00,SSE,168,7.0,15.0,63,0.00,,,0.00,0.000000,,2013-01-19 10:53:00,
2013-01-19 05:03:00,38.0,27.0,-100.00,SSE,168,7.0,15.0,63,0.00,,,0.00,0.000000,,2013-01-19 11:03:00,
2013-01-19 06:48:00,39.0,27.0,-100.00,South,179,8.0,15.0,62,0.00,,,0.00,0.000000,,2013-01-19 12:48:00,
2013-01-19 06:53:00,39.0,27.0,-100.00,South,179,8.0,15.0,62,0.00,,,0.00,0.000000,,2013-01-19 12:53:00,
2013-01-19 07:03:00,39.0,27.0,-100.00,South,179,8.0,15.0,62,0.00,,,0.00,0.000000,,2013-01-19 13:03:00,
2013-01-19 07:34:00,39.0,27.0,-100.00,South,178,9.0,16.0,61,0.00,,,0.00,2.000000,,2013-01-19 13:34:00,
2013-01-19 07:43:00,39.0,27.0,-100.00,South,178,9.0,16.0,61,0.00,,,0.00,2.000000,,2013-01-19 13:43:00,
2013-01-19 07:53:00,39.0,27.0,-100.00,South,178,9.0,16.0,61,0.00,,,0.00,2.000000,,2013-01-19 13:53:00,
2013-01-19 08:02:00,39.0,27.0,-100.00,South,178,9.0,16.0,61,0.00,,,0.00,2.000000,,2013-01-19 14:02:00,
2013-01-19 08:34:00,41.0,28.0,-100.00,South,180,9.0,19.0,59,0.00,,,0.00,109.000000,,2013-01-19 14:34:00,
2013-01-19 08:43:00,41.0,28.0,-100.00,South,180,9.0,19.0,59,0.00,,,0.00,109.000000,,2013-01-19 14:43:00,
2013-01-19 08:53:00,41.0,28.0,-100.00,South,180,9.0,19.0,59,0.00,,,0.00,109.000000,,2013-01-19 14:53:00,
2013-01-19 09:03:00,41.0,28.0,-100.00,South,180,9.0,19.0,59,0.00,,,0.00,109.000000,,2013-01-19 15:03:00,
2013-01-19 09:34:00,44.0,28.0,-100.00,South,171,7.0,18.0,53,0.00,,,0.00,196.000000,,2013-01-19 15:34:00,
2013-01-19 09:43:00,44.0,28.0,-100.00,South,171,7.0,18.0,53,0.00,,,0.00,196.000000,,2013-01-19 15:43:00,
2013-01-19 09:53:00,44.0,28.0,-100.00,South,171,7.0,18.0,53,0.00,,,0.00,196.000000,,2013-01-19 15:53:00,
2013-01-19 10:03:00,44.0,28.0,-100.00,South,171,7.0,18.0,53,0.00,,,0.00,196.000000,,2013-01-19 16:03:00,
2013-01-19 10:33:00,47.0,29.0,-100.00,South,189,7.0,17.0,49,0.00,,,0.00,297.000000,,2013-01-19 16:33:00,
2013-01-19 10:43:00,47.0,29.0,-100.00,South,189,7.0,17.0,49,0.00,,,0.00,297.000000,,2013-01-19 16:43:00,
2013-01-19 10:54:00,47.0,29.0,-100.00,South,189,7.0,17.0,49,0.00,,,0.00,297.000000,,2013-01-19 16:54:00,
2013-01-19 11:03:00,47.0,29.0,-100.00,South,189,7.0,17.0,49,0.00,,,0.00,297.000000,,2013-01-19 17:03:00,
2013-01-19 11:50:00,50.0,30.0,-100.00,SSW,196,7.0,17.0,46,0.00,,,0.00,114.000000,,2013-01-19 17:50:00,
2013-01-19 12:06:00,54.0,31.0,-100.00,SSW,198,6.0,16.0,42,0.00,,,0.00,441.000000,,2013-01-19 18:06:00,
2013-01-19 12:38:00,54.0,31.0,-100.00,SSW,198,6.0,16.0,42,0.00,,,0.00,441.000000,,2013-01-19 18:38:00,
2013-01-19 12:47:00,54.0,31.0,-100.00,SSW,198,6.0,16.0,42,0.00,,,0.00,441.000000,,2013-01-19 18:47:00,
2013-01-19 13:01:00,54.0,31.0,-100.00,SSW,198,6.0,16.0,42,0.00,,,0.00,441.000000,,2013-01-19 19:01:00,
2013-01-19 13:06:00,54.0,31.0,-100.00,SSW,208,7.0,19.0,41,0.00,,,0.00,529.000000,,2013-01-19 19:06:00,
2013-01-19 13:40:00,54.0,31.0,-100.00,SSW,208,7.0,19.0,41,0.00,,,0.00,529.000000,,2013-01-19 19:40:00,
2013-01-19 13:49:00,54.0,31.0,-100.00,SSW,208,7.0,19.0,41,0.00,,,0.00,529.000000,,2013-01-19 19:49:00,
2013-01-19 13:57:00,54.0,31.0,-100.00,SSW,208,7.0,19.0,41,0.00,,,0.00,529.000000,,2013-01-19 19:57:00,
2013-01-19 14:06:00,56.0,31.0,-100.00,SSW,204,6.0,15.0,39,0.00,,,0.00,453.000000,,2013-01-19 20:06:00,
2013-01-19 14:39:00,56.0,31.0,-100.00,SSW,204,6.0,15.0,39,0.00,,,0.00,453.000000,,2013-01-19 20:39:00,
2013-01-19 14:50:00,56.0,31.0,-100.00,SSW,204,6.0,15.0,39,0.00,,,0.00,453.000000,,2013-01-19 20:50:00,
2013-01-19 15:06:00,54.0,28.0,-100.00,SSW,200,7.0,15.0,36,0.00,,,0.00,305.000000,,2013-01-19 21:06:00,
2013-01-19 15:47:00,54.0,28.0,-100.00,SSW,200,7.0,15.0,36,0.00,,,0.00,305.000000,,2013-01-19 21:47:00,
2013-01-19 15:53:00,54.0,28.0,-100.00,SSW,200,7.0,15.0,36,0.00,,,0.00,305.000000,,2013-01-19 21:53:00,
2013-01-19 16:00:00,54.0,28.0,-100.00,SSW,200,7.0,15.0,36,0.00,,,0.00,305.000000,,2013-01-19 22:00:00,
2013-01-19 16:06:00,53.0,30.0,-100.00,South,186,5.0,15.0,41,0.00,,,0.00,115.000000,,2013-01-19 22:06:00,
2013-01-19 16:36:00,53.0,30.0,-100.00,South,186,5.0,15.0,41,0.00,,,0.00,115.000000,,2013-01-19 22:36:00,
2013-01-19 16:49:00,53.0,30.0,-100.00,South,186,5.0,15.0,41,0.00,,,0.00,115.000000,,2013-01-19 22:49:00,
2013-01-19 16:58:00,53.0,30.0,-100.00,South,186,5.0,15.0,41,0.00,,,0.00,115.000000,,2013-01-19 22:58:00,
2013-01-19 17:06:00,49.0,29.0,-100.00,South,184,7.0,12.0,45,0.00,,,0.00,19.000000,,2013-01-19 23:06:00,
2013-01-19 17:35:00,49.0,29.0,-100.00,South,184,7.0,12.0,45,0.00,,,0.00,19.000000,,2013-01-19 23:35:00,
2013-01-19 17:51:00,49.0,29.0,-100.00,South,184,7.0,12.0,45,0.00,,,0.00,19.000000,,2013-01-19 23:51:00,
2013-01-19 18:38:00,47.0,28.0,-100.00,South,176,6.0,13.0,48,0.00,,,0.00,0.000000,,2013-01-20 00:38:00,
2013-01-19 18:48:00,47.0,28.0,-100.00,South,176,6.0,13.0,48,0.00,,,0.00,0.000000,,2013-01-20 00:48:00,
2013-01-19 18:56:00,47.0,28.0,-100.00,South,176,6.0,13.0,48,0.00,,,0.00,0.000000,,2013-01-20 00:56:00,
2013-01-19 19:04:00,47.0,28.0,-100.00,South,176,6.0,13.0,48,0.00,,,0.00,0.000000,,2013-01-20 01:04:00,
2013-01-19 19:06:00,46.0,29.0,-100.00,South,174,7.0,12.0,52,0.00,,,0.00,0.000000,,2013-01-20 01:06:00,
2013-01-19 19:39:00,46.0,29.0,-100.00,South,174,7.0,12.0,52,0.00,,,0.00,0.000000,,2013-01-20 01:39:00,
2013-01-19 19:51:00,46.0,29.0,-100.00,South,174,7.0,12.0,52,0.00,,,0.00,0.000000,,2013-01-20 01:51:00,
2013-01-19 20:04:00,46.0,29.0,-100.00,South,174,7.0,12.0,52,0.00,,,0.00,0.000000,,2013-01-20 02:04:00,
2013-01-19 20:06:00,46.0,29.0,-100.00,South,175,8.0,16.0,52,0.00,,,0.00,0.000000,,2013-01-20 02:06:00,
2013-01-19 20:38:00,46.0,29.0,-100.00,South,175,8.0,16.0,52,0.00,,,0.00,0.000000,,2013-01-20 02:38:00,
2013-01-19 20:45:00,46.0,29.0,-100.00,South,175,8.0,16.0,52,0.00,,,0.00,0.000000,,2013-01-20 02:45:00,
2013-01-19 20:59:00,46.0,29.0,-100.00,South,175,8.0,16.0,52,0.00,,,0.00,0.000000,,2013-01-20 02:59:00,
2013-01-19 21:39:00,46.0,29.0,-100.00,South,187,9.0,19.0,52,0.00,,,0.00,0.000000,,2013-01-20 03:39:00,
2013-01-19 21:47:00,46.0,29.0,-100.00,South,187,9.0,19.0,52,0.00,,,0.00,0.000000,,2013-01-20 03:47:00,
2013-01-19 21:58:00,46.0,29.0,-100.00,South,187,9.0,19.0,52,0.00,,,0.00,0.000000,,2013-01-20 03:58:00,
2013-01-19 22:04:00,46.0,29.0,-100.00,South,187,9.0,19.0,52,0.00,,,0.00,0.000000,,2013-01-20 04:04:00,
2013-01-19 22:38:00,45.0,29.0,-100.00,South,186,10.0,18.0,53,0.00,,,0.00,0.000000,,2013-01-20 04:38:00,
2013-01-19 22:45:00,45.0,29.0,-100.00,South,186,10.0,18.0,53,0.00,,,0.00,0.000000,,2013-01-20 04:45:00,
2013-01-19 22:57:00,45.0,29.0,-100.00,South,186,10.0,18.0,53,0.00,,,0.00,0.000000,,2013-01-20 04:57:00,
2013-01-19 23:04:00,45.0,29.0,-100.00,South,186,10.0,18.0,53,0.00,,,0.00,0.000000,,2013-01-20 05:04:00,
2013-01-19 23:33:00,44.0,30.0,-100.00,SSW,195,8.0,17.0,57,0.00,,,0.00,0.000000,,2013-01-20 05:33:00,
2013-01-19 23:43:00,44.0,30.0,-100.00,SSW,195,8.0,17.0,57,0.00,,,0.00,0.000000,,2013-01-20 05:43:00,
2013-01-19 23:53:00,44.0,30.0,-100.00,SSW,195,8.0,17.0,57,0.00,,,0.00,0.000000,,2013-01-20 05:53:00,